YPDN

Darwin International Airport

Airport
ICAO code
YPDN
IATA Code
DRW
Summary
ICAO Region
APAC
ICAO Territory
Location

Marrara, Northern Territory

Serving
Darwin
Elevation
103 ft
Coordinates
12° 24' 54" S , 130° 52' 40" E
KCC
Metar
Observation
YPDN 070000Z 34004KT 9999 FEW032 BKN400 31/22 Q1009
Station
Darwin Airport
Date/Time
2022-12-07 00:00:00
Wind direction
340°
Wind speed
04 kts
Lowest cloud amount
few clouds
Temperature
31°C
Dew point
22°C
Humidity
58%
QNH
1009 hPa
Weather condition
n/a

Darwin International Airport serves the city of Darwin and the rest of the Australian Northern Territory. It is classified as a joint (civil/military) use aerodrome and is located in the northern Darwin suburb of Marrara,13 km from the city centre, .

Climatology

Tropical Savanna climate (Köppen climate classification Aw).

Airport map

Aerial View

SKYbrary Partners:

Safety knowledge contributed by: